Winfield, KS

5:35 PM CDT on April 23, 2017 (GMT -0500)
Strother

Weather History for KWLD - March, 2014

Change the Weather History Date:

Saturday, March 22, 2014

  Actual Average Record
Temperature  
Mean Temperature 44 °F -  
Max Temperature 55 °F 59 °F 84 °F (2011)
Min Temperature 34 °F 37 °F 12 °F (2002)
Degree Days  
Heating Degree Days 21    
Moisture  
Dew Point 23 °F    
Average Humidity 46    
Maximum Humidity 75    
Minimum Humidity 29    
Precipitation  
Precipitation 0.00 in - - ()
Sea Level Pressure  
Sea Level Pressure 30.24 in    
Wind  
Wind Speed 17 mph (NNE)    
Max Wind Speed 23 mph    
Max Gust Speed 32 mph    
Visibility 10 miles    
Events      
Averages and records for this station are not official NWS values.
T = Trace of Precipitation, MM = Missing Value Source: NWS Daily Summary

Daily Weather History Graph

Daily Weather History Graph

Search for Another Location

Airport or City:

Trip Planner

Search our weather history database for the weather conditions in past years. The results will help you decide how hot, cold, wet, or windy it might be!

Date:

Astronomy

Mar. 22, 2014 Rise Set
Actual Time 7:28 AM CDT 7:41 PM CDT
Civil Twilight 7:02 AM CDT 8:07 PM CDT
Nautical Twilight 6:32 AM CDT 8:38 PM CDT
Astronomical Twilight 6:01 AM CDT 9:09 PM CDT
Moon 12:55 AM CDT (3/22) 11:19 AM CDT (3/22)
Length of Visible Light 13h 05m
Length of Day
12h 13m
Waning Gibbous, 65% of the Moon is Illuminated
Mar 22
Waning Gibbous
Mar 23
Last Quarter
Mar 30
New
Apr 7
First Quarter
Apr 15
Full

Hourly Weather History & Observations

Time (CDT) Temp. Windchill Dew Point Humidity Pressure Visibility Wind Dir Wind Speed Gust Speed Precip Events Conditions
12:54 AM 48.9 °F - 28.0 °F 44% 30.11 in 10.0 mi NNE 18.4 mph 24.2 mph N/A   Clear
1:54 AM 46.9 °F - 28.9 °F 50% 30.13 in 10.0 mi NNE 17.3 mph - N/A   Clear
2:54 AM 44.1 °F 35.4 °F 30.9 °F 60% 30.14 in 10.0 mi NNE 21.9 mph 27.6 mph N/A   Clear
3:54 AM 42.1 °F 34.5 °F 30.9 °F 65% 30.17 in 10.0 mi NNE 15.0 mph 27.6 mph N/A   Clear
4:54 AM 39.0 °F 29.9 °F 28.9 °F 67% 30.21 in 10.0 mi North 17.3 mph 23.0 mph N/A   Clear
5:54 AM 37.0 °F 29.3 °F 28.9 °F 73% 30.22 in 10.0 mi NNE 11.5 mph 21.9 mph N/A   Clear
6:54 AM 34.0 °F 25.5 °F 27.0 °F 75% 30.24 in 10.0 mi NNE 11.5 mph - N/A   Clear
7:54 AM 34.0 °F 25.0 °F 27.0 °F 75% 30.27 in 10.0 mi North 12.7 mph - N/A   Clear
8:54 AM 36.0 °F 25.3 °F 26.1 °F 67% 30.29 in 10.0 mi NNE 19.6 mph 25.3 mph N/A   Clear
9:54 AM 39.0 °F 29.9 °F 25.0 °F 57% 30.31 in 10.0 mi NE 17.3 mph - N/A   Clear
10:54 AM 42.1 °F 33.9 °F 25.0 °F 51% 30.30 in 10.0 mi NNE 17.3 mph 23.0 mph N/A   Clear
11:54 AM 45.0 °F 37.9 °F 25.0 °F 46% 30.27 in 10.0 mi NNE 16.1 mph 26.5 mph N/A   Partly Cloudy
12:54 PM 48.0 °F - 24.1 °F 39% 30.25 in 10.0 mi NE 15.0 mph 21.9 mph N/A   Mostly Cloudy
1:54 PM 52.0 °F - 24.1 °F 34% 30.22 in 10.0 mi NE 18.4 mph 24.2 mph N/A   Mostly Cloudy
2:54 PM 53.1 °F - 23.0 °F 31% 30.21 in 10.0 mi NNE 15.0 mph 20.7 mph N/A   Overcast
3:54 PM 54.0 °F - 23.0 °F 30% 30.18 in 10.0 mi NNE 13.8 mph - N/A   Partly Cloudy
4:54 PM 53.1 °F - 21.0 °F 29% 30.17 in 10.0 mi NE 13.8 mph - N/A   Clear
5:54 PM 53.1 °F - 21.0 °F 29% 30.17 in 10.0 mi NE 16.1 mph - N/A   Clear
6:54 PM 50.0 °F - 19.0 °F 29% 30.20 in 10.0 mi NE 17.3 mph 23.0 mph N/A   Clear
7:54 PM 46.0 °F 39.0 °F 18.0 °F 33% 30.25 in 10.0 mi NNE 17.3 mph - N/A   Clear
8:54 PM 45.0 °F 37.9 °F 15.1 °F 30% 30.29 in 10.0 mi NNE 16.1 mph - N/A   Overcast
9:54 PM 41.0 °F 32.5 °F 10.9 °F 29% 30.35 in 10.0 mi NNE 17.3 mph 32.2 mph N/A   Overcast
10:54 PM 37.9 °F 27.1 °F 10.9 °F 33% 30.40 in 10.0 mi North 23.0 mph 28.8 mph N/A   Overcast
11:54 PM 37.0 °F 26.4 °F 10.0 °F 33% 30.43 in 10.0 mi North 20.7 mph 28.8 mph N/A   Overcast